Showing default

UNISAT 6, 40012

Orbit data source: Space-Track

UNISAT 6, 40012 is a payload satellite owned by GAUSS SrI (IT) in SSO that was launched on Thu, 19 Jun 2014 UTC via a DNEPR launch vehicle from the Orenburg, Russia (OREN). Payloads include a variety of satellites, spacecraft, and rockets equipped with specific instruments for various scientific and technological missions. These include communications satellites like Starlink; space stations such as the ISS; scientific satellites like the Hubble; Earth observation satellites from companies like Planet Labs, Umbra, and HawkEye 360; GPS; miniature CubeSats for education and research; and military/defense satellites.

Loading next visibility...
UNISAT 6 details
Identifier
40012, 2014-033C
Orbit
SSO
Last TLE update7 hours ago
Origin
Flag of ITGAUSS SrI (IT)
ManufacturerGAUSS SrI
MissionOperational Amateur Technology
Bus & MotorUNISAT, Unknown motor
Mass26 kg wet, ~19 kg dry
Launch date (UTC)
2014-06-19 (11 years ago)
Launch vehicle
DNEPR
Launch site
Orenburg, Russia (OREN)
Object type
Payload
Rocket body
Debris
Shape & HBRBox + 4 Pan, 0.9 m
Radar Cross Section0.238 m², Medium (>0.1 m² and < 1m²)

Expand to show TLE details & history

TLE from 7 hours ago
0 UNISAT 6
1 40012U 14033C   24361.44846550  .00007141  00000-0  86420-3 0  9996
2 40012  97.7187 156.6965 0050446  37.9800 322.4954 14.83050623566303
Epoch: 2024-12-26T10:45Z
Definitive object data (Epoch: 2024-12-26T10:45:47.419Z)
Latitude-0.00001°
Longitude-100.17879°
Altitude594.798 km
Speed7.578 km/s
True Right ascension10h 26m 47s
True Declination0° 00' 00"
Sunlit
Object was in full shadow at TLE epoch
Visualization TLE readout
Latitude64.42629°
Longitude-116.26686°
Altitude599.712 km
Speed7.583 km/s
Apparent Right ascension06h 32m 35s
Apparent Declination18° 13' 38"
Sunlit
Object is in full shadow
Visualization observer readout
Local Sidereal Time16:54:13
Azimuth333.538° NNW
Elevation-27.498°
Doppler factor1
Orbital elements
Apogee altitude652.026 km
Perigee altitude581.454 km
Semi-major axis6,994.877 km
Eccentricity0.0050446
Inclination97.7187°
RAAN156.6965°
Arg. of periapsis37.98°
True anomaly322.14169°
Mean anomaly322.4954°
Eccentric anomaly322.31872°
Mean motion3.70999 °/min
BSTAR0.0008642
Orbital period97.04 mins
Loading maneuver chart data...
Loading historical data...
Loading historical data...
Loading historical data...
Loading historical data...
Loading historical data...
Loading historical data...
Loading historical data...

UNISAT 6 Visibility forecast

Observer location: undefined°, undefined

Span
Click to sort rows by Start time (UTC) header in descending order
Start Az.
Max El. time (UTC)
Max El. Az.
Max El.
End time (UTC)
End Az.
6 mins2024-12-26 22:40:52.644Z45.664° ENE2024-12-26 22:43:52.644Z99.815° ESE23.602°2024-12-26 22:46:52.644Z148.791° SSE
5 mins2024-12-27 00:17:52.644Z328.494° NNW2024-12-27 00:19:52.644Z287.132° WNW23.892°2024-12-27 00:22:52.644Z237.946° WSW
6 mins2024-12-27 11:10:52.644Z204.31° SW2024-12-27 11:13:52.644Z272.62° WNW29.227°2024-12-27 11:16:52.644Z325.865° NNW
|